[[{"header":{"parameterUnit":"m.s-1","parameterCategory":1,"la1":30.2991,"la2":30.254,"lo1":-89.0895,"lo2":-89.0444,"dy":0.0017,"dx":0.0017,"nx":28,"ny":28,"refTime":"2025-12-17T09:00:00:Z","depth":0,"parameterNumber":2,"parameterNumberName":"U-component_of_WINDS"},"data":[0,0,0,0,0,0,0,0,0,0,0,0,0,0,0,0,0,0,0,0,0,0,0,0,0,0,0,0,0,0,0,0,0,0,0,0,0,0,0,0,0,0,0,0,0,0,0,0,0,0,0,0,0,0,0,0,0,0,-2.243,-2.2432,0,-2.2619,-2.2621,-2.2623,-2.2668,-2.2667,-2.2666,-2.2665,-2.2857,-2.2863,-2.2869,0,0,0,0,0,0,0,0,0,0,0,0,0,-2.2108,-2.2114,-2.243,-2.2432,-2.2435,-2.2619,-2.2621,-2.2624,-2.2669,-2.2667,-2.2666,-2.2664,-2.2855,-2.2863,-2.287,0,0,0,0,0,0,0,0,0,0,0,0,0,-2.2267,-2.2116,-2.243,-2.2479,-2.2486,-2.2618,-2.2621,-2.2624,-2.2669,-2.2667,-2.2665,-2.2663,-2.2853,-2.2862,-2.2871,-2.2967,0,0,-2.29,-2.2904,0,0,0,0,0,0,0,0,-2.2258,-2.2279,-2.247,-2.2476,-2.2483,-2.2618,-2.2578,-2.2739,-2.2669,-2.2599,-2.2665,-2.2663,-2.2779,-2.2794,-2.2834,-2.2976,-2.2984,-2.2901,-2.2907,-2.2911,-2.2913,0,0,0,0,0,0,0,-2.2247,-2.2271,-2.2505,-2.2472,-2.2481,-2.2492,-2.2513,-2.2609,-2.2697,-2.2605,-2.2609,-2.2631,-2.2783,-2.2825,-2.2839,-2.2987,-2.2901,-2.2909,-2.2915,-2.2918,-2.3218,-2.322,0,0,0,0,0,0,-2.2228,-2.2262,-2.2499,-2.251,-2.2364,-2.2499,-2.2522,-2.2577,-2.2697,-2.2713,-2.2632,-2.2632,-2.281,-2.2828,-2.2846,-2.2966,-2.2911,-2.2919,-2.2925,-2.3215,-2.3218,-2.3221,0,0,0,0,0,0,-2.222,-2.2248,-2.2491,-2.2387,-2.2419,-2.2507,-2.2568,-2.2582,-2.2624,-2.2717,-2.2733,-2.2659,-2.2809,-2.2832,-2.2937,-2.2973,-2.2924,-2.2932,-2.3213,-2.3216,-2.3219,-2.3206,0,0,0,0,0,0,-2.2211,-2.2245,-2.2283,-2.2388,-2.2424,-2.2579,-2.257,-2.2587,-2.264,-2.2642,-2.2746,-2.2762,-2.2809,-2.2922,-2.2946,-2.2985,-2.294,-2.321,-2.3214,-2.3218,-2.3204,-2.3209,-2.3213,0,0,0,0,0,-2.2199,-2.2271,-2.2284,-2.2313,-2.2473,-2.2581,-2.2602,-2.2655,-2.2643,-2.2681,-2.2741,-2.2759,-2.2966,-2.2933,-2.296,-2.3002,-2.3208,-2.3213,-2.3218,-2.3202,-2.3208,-2.3213,0,0,0,0,0,0,-2.2168,-2.2286,-2.2302,-2.241,-2.2485,-2.2588,-2.2638,-2.266,-2.274,-2.2738,-2.28,-2.2824,-2.2923,-2.2974,-2.2935,-2.3101,-2.3086,-2.3097,-2.3065,-2.3071,-2.3076,-2.3061,-2.2947,0,0,0,0,0,-2.2174,-2.2252,-2.2351,-2.2436,-2.2473,-2.2549,-2.2598,-2.2633,-2.2713,-2.2745,-2.2812,-2.2889,-2.2972,-2.3025,-2.3106,-2.3212,-2.3235,-2.3254,-2.3259,-2.3262,-2.327,-2.333,-2.334,-2.3238,-2.3237,-2.3237,0,0,-2.2186,-2.226,-2.2306,-2.2432,-2.2494,-2.2573,-2.2576,-2.2659,-2.2718,-2.2757,-2.286,-2.2912,-2.3002,-2.3108,-2.3157,-2.3152,-2.3304,-2.3269,-2.3271,-2.3277,-2.3336,-2.3346,-2.3354,-2.3241,-2.324,-2.324,0,0,-2.2249,-2.2313,-2.2392,-2.2454,-2.2549,-2.2599,-2.2617,-2.2718,-2.2754,-2.2858,-2.2889,-2.2961,-2.3101,-2.3164,-2.3214,-2.3302,-2.3321,-2.3327,-2.335,-2.3408,-2.3416,-2.3423,-2.3453,-2.3464,-2.3335,-2.3335,-2.3335,0,-2.2252,-2.2373,-2.2429,-2.2511,-2.2566,-2.2606,-2.2686,-2.2744,-2.2859,-2.2896,-2.2889,-2.3067,-2.313,-2.3251,-2.3272,-2.3312,-2.3335,-2.3314,-2.341,-2.3418,-2.3426,-2.3455,-2.3467,-2.3335,-2.3335,-2.3335,-2.3335,0,-2.2372,-2.2455,-2.2507,-2.2618,-2.2679,-2.2759,-2.2828,-2.2882,-2.2912,-2.2963,-2.3068,-2.3146,-2.3243,-2.3275,-2.3304,-2.34,-2.3394,-2.3398,-2.3383,-2.3435,-2.3463,-2.3475,-2.3335,-2.3335,-2.3335,-2.3335,0,0,-2.2419,-2.2561,-2.2579,-2.2629,-2.2737,-2.2802,-2.2885,-2.298,-2.3026,-2.3105,-2.3175,-2.3294,-2.3298,-2.3355,-2.3393,-2.3443,-2.3507,-2.3441,-2.3444,-2.345,-2.3616,-2.3611,-2.3623,-2.3521,-2.3523,-2.3525,-2.3608,0,-2.2494,-2.2642,-2.2696,-2.2818,-2.2895,-2.2935,-2.3007,-2.308,-2.313,-2.3203,-2.3258,-2.3341,-2.3341,-2.3376,-2.3428,-2.3488,-2.3541,-2.3483,-2.3586,-2.3589,-2.356,-2.3638,-2.3634,-2.3708,-2.3619,-2.3621,-2.3623,0,-2.2601,-2.2681,-2.2811,-2.2909,-2.2943,-2.3007,-2.3099,-2.3168,-2.3253,-2.3286,-2.335,-2.3384,-2.3471,-2.3453,-2.3575,-2.3534,-2.358,-2.3616,-2.362,-2.363,-2.3608,-2.3649,-2.3733,-2.3743,-2.3641,-2.364,-2.3639,0,-2.262,-2.2761,-2.2857,-2.29,-2.3017,-2.306,-2.3111,-2.3194,-2.3248,-2.3329,-2.3364,-2.3454,-2.3503,-2.3571,-2.3629,-2.361,-2.3745,-2.3731,-2.3774,-2.3772,-2.3799,-2.3796,-2.3889,-2.383,-2.383,-2.383,-2.383,0,-2.2698,-2.2775,-2.2867,-2.2926,-2.3014,-2.3075,-2.3161,-2.3214,-2.3288,-2.3357,-2.3398,-2.3462,-2.3535,-2.3609,-2.3654,-2.3747,-2.377,-2.3798,-2.3809,-2.3794,-2.379,-2.3823,-2.3819,-2.3833,-2.3832,-2.3832,-2.3831,0,-2.2733,-2.2799,-2.2905,-2.3008,-2.3036,-2.3096,-2.3184,-2.3242,-2.3294,-2.3382,-2.3406,-2.3488,-2.3577,-2.3642,-2.3757,-2.3787,-2.3887,-2.3898,-2.3858,-2.3863,-2.3902,-2.3896,-2.4018,-2.4037,-2.3966,-2.3967,-2.3968,0,-2.2778,-2.2838,-2.2947,-2.2997,-2.3048,-2.3127,-2.3183,-2.3246,-2.3302,-2.3403,-2.3449,-2.3542,-2.3618,-2.3759,-2.3829,-2.3917,-2.393,-2.3967,-2.3943,-2.3926,-2.3929,-2.3924,-2.393,-2.3969,-2.397,-2.397,-2.397,0,-2.2849,-2.2878,-2.2957,-2.3047,-2.3112,-2.3186,-2.3261,-2.3299,-2.3375,-2.3436,-2.3528,-2.3588,-2.3706,-2.3796,-2.3892,-2.3944,-2.397,-2.3978,-2.3992,-2.3976,-2.395,-2.3963,-2.3866,-2.3974,-2.3974,-2.3973,-2.3973,-2.3973,-2.289,-2.2945,-2.3031,-2.3117,-2.318,-2.3249,-2.3308,-2.3368,-2.3446,-2.3547,-2.358,-2.3675,-2.3758,-2.3889,-2.3943,-2.4018,-2.4016,-2.4037,-2.4042,-2.4046,-2.4044,-2.3939,-2.4035,-2.4035,-2.4035,-2.4035,-2.4035,0,-2.2962,-2.3019,-2.3098,-2.3201,-2.3269,-2.3288,-2.3372,-2.3427,-2.351,-2.3586,-2.3661,-2.3767,-2.3855,-2.3932,-2.4024,-2.4069,-2.4083,-2.4091,-2.4087,-2.4099,-2.4041,-2.4019,-2.4078,-2.4078,-2.4078,-2.4078,-2.4078,-2.4078,-2.3007,-2.3102,-2.3142,-2.3268,-2.3325,-2.3418,-2.3464,-2.3528,-2.3589,-2.3705,-2.3779,-2.3828,-2.3905,-2.4003,-2.4085,-2.4105,-2.4136,-2.4141,-2.4164,-2.4108,-2.4103,-2.4098,-2.4077,-2.4148,-2.4148,-2.4215,-2.4216,-2.4216]},{"header":{"parameterUnit":"m.s-1","parameterCategory":1,"la1":30.2991,"la2":30.254,"lo1":-89.0895,"lo2":-89.0444,"dy":0.0017,"dx":0.0017,"nx":28,"ny":28,"refTime":"2025-12-17T09:00:00:Z","depth":0,"parameterNumber":3,"parameterNumberName":"V-component_of_WINDS"},"data":[0,0,0,0,0,0,0,0,0,0,0,0,0,0,0,0,0,0,0,0,0,0,0,0,0,0,0,0,0,0,0,0,0,0,0,0,0,0,0,0,0,0,0,0,0,0,0,0,0,0,0,0,0,0,0,0,0,0,2.1684,2.1683,0,2.163,2.1629,2.1629,2.1637,2.1638,2.1639,2.164,2.1579,2.1577,2.1574,0,0,0,0,0,0,0,0,0,0,0,0,0,2.1793,2.1791,2.1684,2.1683,2.1683,2.163,2.1629,2.1628,2.1637,2.1638,2.164,2.1641,2.158,2.1577,2.1574,0,0,0,0,0,0,0,0,0,0,0,0,0,2.1743,2.179,2.1684,2.1681,2.168,2.163,2.1629,2.1628,2.1637,2.1639,2.164,2.1641,2.1581,2.1577,2.1574,2.1522,0,0,2.1562,2.1561,0,0,0,0,0,0,0,0,2.1745,2.1739,2.1682,2.1681,2.168,2.1642,2.1645,2.1592,2.1637,2.1653,2.164,2.1642,2.1599,2.1594,2.158,2.1519,2.1516,2.1562,2.156,2.1558,2.1557,0,0,0,0,0,0,0,2.1749,2.1741,2.1662,2.1681,2.168,2.1681,2.1676,2.1635,2.1618,2.1652,2.1652,2.1646,2.1598,2.1584,2.1579,2.1515,2.1562,2.1559,2.1556,2.1555,2.1413,2.1412,0,0,0,0,0,0,2.1754,2.1744,2.1664,2.1661,2.1717,2.1678,2.1672,2.1653,2.1619,2.1615,2.1645,2.1647,2.1589,2.1583,2.1577,2.1516,2.1558,2.1555,2.1552,2.1414,2.1413,2.1411,0,0,0,0,0,0,2.1756,2.1747,2.1666,2.1703,2.1692,2.1675,2.1653,2.1651,2.1636,2.1614,2.161,2.1633,2.159,2.1582,2.1537,2.1514,2.1553,2.1549,2.1416,2.1414,2.1412,2.1393,0,0,0,0,0,0,2.1759,2.1748,2.1728,2.1702,2.1691,2.1628,2.1652,2.1649,2.163,2.1632,2.1602,2.1598,2.1591,2.1542,2.1533,2.1509,2.1546,2.1418,2.1415,2.1413,2.1396,2.139,2.1386,0,0,0,0,0,2.1763,2.1723,2.1727,2.1717,2.1666,2.1627,2.162,2.1614,2.1628,2.1609,2.1595,2.1599,2.1518,2.1538,2.1527,2.1502,2.142,2.1416,2.1413,2.1398,2.1391,2.1386,0,0,0,0,0,0,2.1743,2.1719,2.1723,2.1674,2.1653,2.1628,2.1603,2.1607,2.1579,2.1582,2.1574,2.1567,2.1522,2.1507,2.1529,2.1452,2.1471,2.1465,2.1463,2.1457,2.1452,2.1456,2.1543,0,0,0,0,0,2.1734,2.1705,2.1685,2.1643,2.1633,2.162,2.1602,2.16,2.1577,2.1567,2.155,2.1526,2.1496,2.1475,2.1446,2.1394,2.1388,2.1372,2.1367,2.1363,2.1358,2.1333,2.1326,2.14,2.14,2.14,0,0,2.1712,2.1696,2.1677,2.1639,2.1622,2.1592,2.1612,2.1578,2.1556,2.1561,2.1519,2.1505,2.1479,2.1431,2.1409,2.1417,2.1337,2.1359,2.1356,2.1353,2.1329,2.1322,2.1315,2.1398,2.1398,2.1398,0,0,2.1659,2.1643,2.1608,2.1592,2.1567,2.156,2.1552,2.1527,2.152,2.1478,2.1482,2.1455,2.1402,2.1384,2.1367,2.1312,2.1315,2.1302,2.1277,2.1252,2.1246,2.1241,2.1223,2.1216,2.1297,2.1297,2.1297,0,2.1634,2.1591,2.1588,2.1556,2.154,2.1546,2.1511,2.1495,2.1461,2.145,2.146,2.1397,2.1379,2.1329,2.1316,2.1301,2.1292,2.1305,2.1247,2.1242,2.1237,2.122,2.1213,2.1296,2.1296,2.1296,2.1296,0,2.1564,2.1534,2.1508,2.148,2.146,2.1426,2.1418,2.1399,2.1399,2.1391,2.1349,2.1328,2.1296,2.1284,2.1282,2.1234,2.1241,2.1249,2.1268,2.1229,2.1213,2.1206,2.1294,2.1295,2.1295,2.1295,0,0,2.1494,2.1467,2.1458,2.1446,2.1422,2.1398,2.1365,2.1337,2.1321,2.1298,2.1271,2.1229,2.1238,2.122,2.1216,2.1195,2.1155,2.1206,2.1206,2.1199,2.1103,2.1097,2.1089,2.1158,2.1156,2.1155,2.1106,0,2.1439,2.1383,2.1382,2.133,2.1304,2.1312,2.1283,2.1265,2.1257,2.1233,2.1223,2.1194,2.1207,2.1197,2.1176,2.1164,2.1135,2.1168,2.1132,2.1131,2.1139,2.108,2.1073,2.1027,2.1099,2.1098,2.1097,0,2.1367,2.1346,2.1293,2.1276,2.1265,2.124,2.1215,2.1192,2.1172,2.1168,2.115,2.1151,2.1118,2.1139,2.1094,2.1116,2.1101,2.1094,2.1092,2.1088,2.1112,2.1076,2.1012,2.1006,2.1087,2.1087,2.1088,0,2.1323,2.1281,2.1245,2.1235,2.1213,2.1196,2.1186,2.1168,2.1152,2.113,2.112,2.1094,2.1079,2.1059,2.1054,2.1069,2.101,2.1029,2.1005,2.1006,2.0992,2.0993,2.0926,2.0982,2.0982,2.0982,2.0982,0,2.1263,2.123,2.1226,2.1204,2.1169,2.1167,2.1132,2.1123,2.1108,2.1084,2.1088,2.1065,2.1059,2.1035,2.103,2.0995,2.0988,2.0984,2.0983,2.0984,2.0985,2.0975,2.0978,2.098,2.0981,2.0981,2.0981,0,2.1208,2.1203,2.1165,2.1149,2.1145,2.112,2.1106,2.1085,2.1079,2.1049,2.1042,2.1031,2.1004,2.0997,2.0963,2.096,2.0919,2.0921,2.0927,2.0927,2.0904,2.0907,2.0828,2.0819,2.088,2.088,2.0879,0,2.1169,2.1146,2.1129,2.1115,2.1105,2.1081,2.1066,2.1064,2.1048,2.1026,2.1008,2.0982,2.0961,2.0917,2.0906,2.0881,2.0883,2.0857,2.0879,2.0882,2.0884,2.0886,2.0885,2.0853,2.0852,2.0852,2.0851,0,2.1103,2.1103,2.1082,2.1062,2.1044,2.1027,2.1011,2.0998,2.0995,2.0977,2.095,2.0934,2.0903,2.0877,2.0853,2.0842,2.0846,2.0845,2.0839,2.0839,2.0844,2.0843,2.0916,2.0847,2.0847,2.0847,2.0848,2.0848,2.1056,2.1036,2.1023,2.1,2.0989,2.0974,2.0955,2.0948,2.0926,2.0902,2.0902,2.0874,2.0857,2.0826,2.0814,2.0792,2.08,2.079,2.0787,2.0785,2.0784,2.0848,2.0787,2.0787,2.0788,2.0788,2.0788,0,2.0991,2.0984,2.0963,2.0942,2.0925,2.0933,2.0917,2.0901,2.0877,2.0862,2.0843,2.0814,2.079,2.0779,2.0756,2.074,2.0742,2.0734,2.0736,2.0734,2.0778,2.0786,2.0734,2.0734,2.0734,2.0734,2.0734,2.0734,2.0956,2.0924,2.0923,2.0886,2.0878,2.0852,2.0843,2.083,2.0818,2.0787,2.0768,2.0762,2.0749,2.0725,2.0704,2.0702,2.0693,2.0685,2.0683,2.0725,2.073,2.0735,2.0744,2.0683,2.0683,2.0641,2.0641,2.0641]}]]